Theta_e
312 313 311 309 309 309 309 309 310 311 312 313 314 314 313 312 312 312 315 318 318 319 322 321 319 321 326 331 332 333 333 332 332 330 330 334 335 336 335 335 336 336 327 319 316 316 316 316 317 319 321 322 323 324 321 323 329 334 339 339 336 336 334 334 333 327 325 328 323 321 323 325 325 320 318 320 329 334 331 334 336 332 332 332 332 331 332 332
311 312 311 309 309 310 309 309 309 310 310 312 314 314 313 312 312 312 313 317 318 318 321 321 319 320 323 329 332 332 332 331 331 329 331 334 334 335 335 334 335 337 333 321 316 316 317 319 318 319 324 324 323 323 322 321 326 338 343 339 340 340 334 333 334 327 324 326 325 322 322 323 324 323 320 322 330 332 331 333 336 339 336 333 331 331 332 330
311 310 311 310 310 310 309 309 309 310 310 311 313 314 313 313 312 312 313 316 318 318 320 322 320 319 322 328 331 332 331 329 330 329 331 333 334 334 335 334 333 337 336 324 317 316 316 318 317 321 326 326 326 325 325 323 323 333 338 340 343 339 332 331 330 328 325 324 325 322 320 322 322 322 320 325 332 331 333 331 332 340 342 342 334 329 331 329
311 310 310 310 310 310 309 309 310 310 310 310 312 313 313 313 312 312 313 314 317 318 319 322 320 319 321 327 331 333 330 329 331 329 329 331 333 333 334 334 332 334 337 325 317 316 315 315 317 323 325 327 329 326 326 326 322 324 330 339 342 334 332 333 326 324 324 320 323 324 321 321 320 320 320 327 332 331 332 330 330 337 344 347 335 328 331 329
311 311 310 310 310 310 308 308 309 310 311 310 311 313 313 313 313 312 312 313 316 318 319 321 321 319 320 327 333 331 329 332 333 329 328 329 331 333 333 334 332 333 334 324 317 316 314 316 320 325 328 330 329 325 329 328 324 323 325 332 335 330 331 332 324 320 321 317 320 324 322 322 320 319 324 329 328 329 329 327 329 331 340 346 336 330 330 328
311 310 310 309 308 309 308 307 308 310 311 311 311 313 313 313 313 313 312 313 315 317 318 321 322 320 319 326 331 329 331 334 330 327 329 329 329 332 333 333 333 332 330 321 316 315 316 320 321 324 328 330 328 327 331 327 323 327 327 328 331 330 328 326 321 318 319 319 322 323 320 321 320 319 324 329 325 326 326 323 325 326 331 336 333 330 331 329
311 310 310 309 307 308 308 306 308 310 311 311 312 313 314 313 313 313 312 313 314 316 317 319 322 320 319 324 327 327 331 332 326 326 329 329 329 330 331 334 333 329 324 318 315 315 319 323 324 326 327 328 329 328 330 326 322 327 330 330 328 325 325 322 319 318 318 321 321 319 318 320 323 321 322 326 326 325 320 314 315 321 325 329 330 331 330 330
311 310 310 309 307 307 307 306 307 310 310 311 311 312 314 314 313 313 312 313 314 315 317 318 322 321 319 324 326 327 331 330 326 326 326 329 330 330 331 334 333 328 322 319 315 316 318 322 324 325 326 326 329 327 326 326 324 326 330 331 326 323 327 324 320 319 318 319 317 316 318 321 321 319 320 324 325 322 320 320 323 326 329 330 332 332 330 330
312 311 311 309 307 307 307 306 307 309 309 310 311 312 314 314 314 313 313 314 313 314 316 318 322 321 320 323 325 330 332 327 326 326 325 328 329 331 332 333 334 328 324 320 316 318 318 320 323 324 326 326 327 327 326 327 328 328 327 330 327 325 327 322 320 320 319 317 315 316 319 319 315 314 319 323 322 321 325 339 340 334 335 333 333 332 330 330
312 312 311 310 306 305 307 307 306 307 308 309 310 311 313 314 314 313 313 314 313 314 315 318 322 322 322 322 324 329 330 325 325 326 325 326 327 331 332 332 334 330 325 320 317 319 318 318 321 324 328 327 325 327 327 327 330 330 327 330 330 328 324 318 320 320 317 316 315 318 319 318 313 312 319 320 321 323 330 346 342 336 340 334 332 332 329 329
312 312 311 310 307 305 306 306 306 305 307 309 310 310 312 314 314 313 314 315 314 314 315 317 321 322 322 322 324 327 326 324 323 324 326 327 327 330 331 332 333 330 326 321 318 318 316 316 318 321 325 326 327 328 329 328 327 328 327 329 330 329 325 317 318 317 315 317 316 317 318 317 315 314 318 319 321 323 329 348 344 339 339 332 332 332 328 329
311 312 311 310 308 305 305 306 305 305 306 308 309 310 311 313 314 314 314 315 314 314 315 317 320 322 322 322 323 325 325 324 321 321 325 328 328 327 329 331 332 331 327 321 318 316 316 317 318 322 323 326 329 328 332 330 326 327 327 330 329 327 328 323 319 317 317 318 316 317 320 319 317 316 316 319 323 321 325 343 345 339 335 332 332 331 330 329
311 312 311 311 309 306 305 305 305 305 306 307 309 309 310 312 314 314 314 315 315 315 315 316 320 322 322 322 322 323 325 325 324 323 324 327 328 327 328 330 331 332 329 323 318 316 317 317 319 323 324 330 332 327 330 329 326 328 327 332 333 328 331 329 319 316 317 317 317 320 325 325 322 319 318 319 323 322 323 333 340 338 334 332 331 331 331 329
310 311 311 311 310 307 304 304 304 305 306 307 309 308 309 311 313 314 314 315 315 315 315 316 319 321 321 322 322 322 324 325 327 327 326 327 327 327 328 329 327 327 327 323 319 318 317 318 321 323 326 331 332 328 331 331 330 331 328 331 334 336 341 335 319 316 318 315 316 322 326 327 325 323 323 321 321 322 322 325 330 334 333 332 331 331 331 330
310 311 311 311 310 307 305 304 304 305 305 307 309 308 308 310 312 314 314 315 316 315 316 317 320 320 321 322 322 322 323 325 326 327 327 327 326 326 326 326 324 324 324 322 321 322 320 321 323 327 330 328 328 333 335 334 335 335 331 333 334 336 344 340 321 316 321 317 315 320 325 326 324 326 330 324 318 319 320 321 322 327 330 331 331 330 331 330
310 310 311 311 310 308 305 304 303 304 305 307 309 309 309 310 311 313 314 315 316 316 317 319 319 320 322 323 322 323 325 326 326 326 327 326 326 325 324 323 323 323 323 321 321 324 324 324 326 330 332 329 330 336 337 335 336 335 333 336 337 334 338 339 325 317 320 319 315 319 325 329 328 327 328 322 317 316 317 318 317 319 324 327 330 330 330 331
310 310 311 311 310 308 306 304 303 304 306 308 310 309 309 310 311 312 313 314 317 318 318 319 319 320 321 321 322 324 325 325 325 326 326 326 325 325 323 322 322 323 322 321 321 323 325 327 326 328 331 333 334 334 337 337 337 335 334 336 336 334 335 337 333 323 318 318 317 318 322 326 329 327 324 320 317 316 316 316 316 315 317 320 325 328 329 330
309 309 310 311 311 309 307 305 305 305 307 309 309 310 311 311 312 313 313 315 316 317 317 318 319 321 321 319 321 325 325 325 326 326 326 325 325 325 323 322 323 323 323 324 322 321 326 327 326 328 332 334 333 331 334 336 336 336 334 334 334 333 334 335 335 328 317 317 320 319 319 321 324 325 324 322 317 318 319 316 315 314 314 315 318 322 325 327
309 309 310 310 310 310 307 306 306 306 308 309 310 311 312 312 313 314 314 315 316 316 318 319 319 320 323 320 320 323 324 325 326 325 325 324 323 323 323 322 324 325 326 327 323 321 325 327 326 329 330 330 331 329 331 334 334 335 334 335 335 333 334 333 333 328 317 316 320 320 320 319 320 321 321 320 318 319 320 317 315 315 313 313 313 315 318 322
309 309 309 309 310 309 308 308 307 308 309 310 311 312 312 311 312 313 313 314 316 316 317 319 318 318 321 322 319 321 324 325 326 325 324 323 322 322 323 323 324 326 327 328 325 321 324 326 325 325 327 327 328 327 329 335 336 335 335 335 336 336 335 332 332 329 319 317 321 319 319 320 320 320 319 318 318 319 320 317 316 315 314 314 313 313 313 316
308 308 309 309 309 309 308 308 308 308 309 311 312 312 312 311 311 312 312 313 315 315 315 317 317 317 319 321 320 321 324 326 325 324 324 322 321 324 325 324 325 327 328 328 325 323 323 325 324 322 323 325 326 328 330 335 337 336 335 335 336 336 335 334 332 329 320 317 323 322 319 319 318 318 318 316 317 319 319 318 317 316 316 315 314 314 313 312
308 308 309 309 309 308 308 308 307 307 309 311 311 311 311 310 311 311 312 313 313 314 315 315 316 317 317 319 321 322 323 326 326 325 324 322 322 325 325 325 327 328 328 327 326 327 324 324 324 321 322 324 326 329 330 333 335 336 335 335 337 335 334 335 331 328 321 320 329 329 323 322 320 318 318 317 317 318 317 318 318 317 317 316 315 314 313 313
309 308 308 309 309 308 308 308 308 309 310 310 310 311 310 309 311 311 311 313 313 313 314 315 315 316 317 318 320 320 322 326 327 325 323 323 323 325 325 326 327 327 328 327 328 329 328 325 323 322 322 324 327 329 329 331 333 335 335 335 337 336 335 337 332 326 323 321 327 329 326 325 324 323 322 319 318 319 319 318 318 318 318 318 317 316 315 314
309 308 308 309 309 308 309 308 309 310 311 310 310 310 310 310 311 310 311 313 315 315 313 314 315 315 317 318 319 321 323 325 326 324 323 324 325 325 326 326 327 328 328 327 327 328 329 326 322 323 323 325 328 329 329 330 332 335 335 333 337 337 335 337 333 325 322 322 321 324 329 330 328 328 327 324 322 320 320 319 319 318 317 318 318 319 317 316
308 308 308 309 308 308 309 309 310 311 311 310 310 310 309 310 311 311 312 313 314 314 313 314 315 315 316 317 318 321 322 323 324 323 323 324 326 326 326 326 327 329 328 327 328 328 328 326 324 324 324 326 329 330 330 330 332 335 334 333 335 337 336 333 330 326 328 331 325 325 336 339 336 336 332 328 328 325 322 321 321 320 318 318 318 318 318 317
308 308 308 308 308 308 309 309 310 310 310 309 310 310 309 310 311 310 312 313 312 313 315 315 315 316 316 317 318 320 323 324 322 321 322 324 325 325 327 327 327 329 328 327 328 329 327 326 326 326 326 328 330 330 330 330 332 335 335 334 335 336 337 333 328 331 336 336 329 325 334 342 339 338 337 332 332 330 326 324 324 321 320 320 318 317 318 318
308 308 308 308 308 308 309 309 309 310 310 310 309 310 309 310 311 309 310 312 312 313 316 315 314 315 316 316 317 320 324 324 321 321 321 323 325 325 327 328 328 328 327 327 330 330 328 327 327 326 328 330 331 331 331 329 332 335 334 334 335 336 338 333 328 334 335 332 328 323 327 336 335 335 336 333 333 333 329 327 325 321 320 320 319 318 318 318
308 308 308 308 308 308 308 309 309 309 309 309 309 310 310 310 309 308 310 312 313 313 315 315 313 313 315 316 318 321 323 323 324 323 320 321 325 326 328 328 327 328 326 328 332 331 327 327 327 327 328 330 330 331 331 330 332 333 331 331 332 333 335 332 328 331 331 331 333 326 323 332 334 331 330 328 331 334 331 329 327 323 322 321 319 319 318 318
307 308 308 307 307 308 308 308 309 309 308 308 309 310 310 308 307 309 311 313 314 313 314 315 313 313 316 317 318 320 321 321 324 324 320 321 323 323 328 328 326 328 327 328 332 330 327 326 325 326 328 329 331 331 331 332 332 330 328 328 328 329 331 332 333 333 331 332 336 330 325 334 338 333 329 326 329 332 330 328 328 327 327 324 321 319 318 318
307 307 307 306 307 308 308 308 308 308 308 308 310 310 309 308 308 311 312 313 314 314 313 314 313 315 318 319 320 321 320 319 322 322 321 323 322 321 325 326 326 328 327 328 330 328 326 325 325 326 327 329 332 332 331 331 330 328 328 330 330 331 332 334 334 334 335 335 336 332 326 332 339 336 332 329 328 330 329 329 329 330 330 328 324 322 319 318
307 308 307 307 308 308 308 309 308 308 309 309 310 309 308 309 310 312 313 312 314 315 315 315 315 317 319 319 322 322 319 319 321 322 323 324 325 324 325 327 327 328 327 328 329 327 326 326 327 328 327 328 331 332 329 327 328 329 332 334 334 333 333 334 330 330 337 338 336 333 326 329 337 338 334 332 329 329 328 328 330 330 330 329 326 323 321 319
308 308 307 307 308 308 308 308 308 308 309 309 309 308 310 312 312 313 313 309 311 315 316 316 317 318 318 318 320 320 319 318 319 322 324 325 326 326 327 328 328 327 327 327 327 328 327 326 327 327 326 326 330 331 327 325 328 331 332 333 336 335 334 337 333 332 339 336 328 327 327 328 333 334 333 332 331 330 329 328 329 330 331 330 326 324 322 322
308 308 307 307 308 308 307 307 307 308 310 309 309 310 311 313 313 314 312 308 311 315 315 316 317 317 318 318 319 319 319 318 318 321 324 325 327 327 327 327 327 328 328 325 326 328 327 326 326 327 325 325 328 330 329 328 330 332 331 332 335 335 337 340 337 335 338 333 324 323 327 330 333 332 330 329 329 328 327 327 328 329 331 329 325 324 325 325
307 307 307 307 308 308 307 307 307 308 309 309 310 312 312 313 314 313 311 309 312 315 315 316 317 318 318 318 318 318 319 319 317 320 324 325 326 327 327 327 326 328 328 325 325 327 329 329 328 327 327 326 326 328 329 329 330 330 331 335 334 335 340 340 338 340 340 333 324 323 329 334 338 335 327 324 325 326 326 325 323 323 326 325 322 323 324 324
307 306 307 307 308 308 307 307 308 308 309 309 311 313 312 313 314 313 311 311 313 316 316 316 317 318 318 317 317 318 319 320 317 318 322 325 327 327 327 327 326 326 326 326 326 326 329 332 329 327 327 326 326 327 326 328 331 330 332 338 335 335 341 336 330 332 335 335 329 325 329 332 333 329 322 321 324 325 326 324 321 321 322 321 322 322 321 320
307 307 307 308 308 308 307 308 309 309 309 309 311 312 312 312 313 313 312 314 316 316 316 317 317 317 319 317 317 318 318 320 318 317 320 322 325 327 327 326 326 324 325 327 327 325 328 331 328 327 327 325 325 327 325 327 331 329 332 336 330 329 336 334 326 322 326 334 333 327 328 330 330 328 324 325 326 326 329 327 324 324 321 321 323 321 319 319
306 307 307 307 307 307 307 309 309 309 309 309 311 312 312 312 313 312 312 314 317 316 315 318 317 316 317 317 317 317 319 320 318 318 319 319 321 325 325 325 325 323 325 328 328 327 330 331 327 326 328 326 324 326 326 326 329 329 331 331 325 326 330 332 332 330 329 333 332 328 330 333 335 333 326 326 328 328 330 329 326 325 324 322 321 317 317 318
306 306 306 307 307 307 307 309 309 309 308 309 311 312 312 312 312 313 313 313 315 316 316 317 316 315 316 316 316 315 317 319 318 318 320 319 320 323 325 325 324 322 322 326 328 328 330 331 327 326 328 326 325 327 328 327 327 328 329 326 328 332 330 328 333 336 333 333 334 331 328 329 332 330 324 325 329 329 328 329 329 327 326 323 320 318 318 318
306 305 305 306 306 306 307 309 309 308 309 310 311 312 311 310 311 311 312 314 315 315 315 316 315 315 315 315 315 314 316 318 318 318 320 319 320 323 324 325 324 322 321 323 326 326 327 332 330 326 326 327 326 328 330 329 326 325 326 326 329 333 331 329 332 336 337 334 333 332 329 328 328 326 325 326 330 330 328 329 329 327 325 322 320 320 319 318
306 306 305 306 306 307 308 309 309 309 309 310 311 311 310 309 309 307 307 312 316 315 315 317 316 315 315 315 314 313 314 316 318 319 319 319 320 323 324 325 324 322 321 321 324 324 325 331 331 326 325 328 329 329 329 329 327 327 328 328 329 329 329 331 331 333 336 332 332 333 331 331 330 326 325 326 329 330 329 329 328 325 323 321 320 320 319 318
305 306 306 306 306 308 308 309 310 309 309 310 310 309 308 306 307 307 305 308 315 316 315 317 317 315 314 314 314 314 313 314 316 318 319 318 319 322 323 324 324 322 322 323 325 325 326 329 330 326 326 329 330 328 327 327 327 328 329 328 329 328 329 332 331 330 330 331 335 334 330 334 333 324 321 324 326 325 325 325 324 323 323 323 325 322 318 317
304 305 305 306 308 308 309 310 309 308 309 310 309 308 307 305 305 308 308 307 312 315 315 317 318 317 315 315 315 315 315 314 313 315 319 319 319 322 323 324 324 322 322 324 324 324 327 330 329 326 327 329 327 326 328 329 325 325 327 327 328 328 328 330 331 330 329 329 333 332 330 332 326 319 320 324 324 324 325 322 321 323 323 324 326 322 316 315
305 305 304 306 308 308 309 310 309 308 308 308 307 306 307 307 306 308 309 309 311 313 315 319 319 316 317 318 317 316 315 315 313 313 317 319 318 321 323 323 323 323 323 324 324 324 327 328 326 326 327 327 324 324 327 328 326 327 328 328 328 328 327 329 330 330 330 329 329 331 331 330 323 319 321 321 319 321 324 322 322 324 323 321 324 325 322 319
304 304 304 304 305 307 309 311 310 308 306 305 307 305 305 307 307 308 310 312 311 312 316 319 317 314 316 317 318 318 316 316 316 314 315 319 320 321 324 323 323 324 324 324 324 324 326 327 326 327 329 327 326 326 326 326 327 329 330 328 327 327 327 330 330 328 329 329 328 330 331 329 322 317 316 317 317 320 322 319 318 320 320 319 321 325 325 320
303 303 302 301 300 303 307 308 309 309 306 306 308 307 306 306 305 306 310 310 308 309 312 313 312 314 315 315 319 321 317 316 318 317 317 321 321 320 322 323 323 324 324 324 324 323 325 327 326 327 330 329 328 329 329 329 328 329 329 327 327 327 327 328 328 327 328 329 329 329 329 325 319 314 315 316 316 320 323 320 317 317 318 317 318 321 323 322
304 304 303 301 299 301 303 303 306 308 307 307 308 307 308 308 305 305 307 306 306 307 309 309 311 315 316 315 320 322 318 316 318 320 320 323 323 321 321 323 323 324 324 324 324 323 325 328 326 326 329 328 327 329 329 329 329 328 328 326 326 326 326 326 327 328 328 327 327 327 326 325 320 315 316 316 316 321 324 322 321 324 323 321 320 318 317 320
305 305 304 304 302 303 303 303 305 307 307 309 309 308 308 309 307 306 306 306 307 307 308 309 312 317 316 316 320 320 318 317 318 320 321 322 323 322 321 322 323 324 324 323 323 324 324 326 325 326 327 325 327 330 329 328 328 327 327 327 326 326 326 327 328 327 326 326 327 325 325 327 323 316 317 319 319 321 324 325 327 329 326 323 323 321 320 322
304 305 305 305 306 306 304 304 305 307 308 308 308 307 308 308 309 309 307 307 306 307 310 312 313 316 315 315 319 318 316 317 318 320 323 322 321 321 320 321 322 323 323 322 322 324 323 322 324 325 325 324 327 331 330 327 326 326 327 326 326 325 326 327 327 326 326 327 327 324 325 327 324 322 324 325 323 323 326 326 322 319 319 320 322 324 325 327
301 303 303 303 306 306 305 305 306 307 307 308 307 306 308 309 309 308 307 308 309 308 311 314 315 315 314 314 318 317 315 317 318 318 320 321 321 322 322 322 322 322 322 321 321 322 323 322 321 323 324 323 324 328 329 327 326 326 326 326 325 325 325 326 326 326 326 327 326 325 326 326 324 324 326 328 329 326 322 320 315 315 319 321 323 327 329 329
302 304 303 303 304 305 305 305 306 307 306 307 308 306 307 309 308 307 306 308 311 310 311 314 314 312 312 313 317 318 315 317 319 317 317 319 320 321 322 323 323 323 322 320 320 320 322 323 321 322 324 323 322 324 326 327 327 327 326 326 325 325 325 325 326 326 326 326 326 325 326 325 323 322 322 324 327 322 318 320 319 320 322 322 323 328 331 331
303 304 304 304 305 305 306 305 306 307 307 307 307 306 307 307 306 307 305 305 309 310 311 312 312 311 311 313 317 318 315 316 319 317 316 317 317 317 319 320 322 323 322 320 319 319 321 323 321 321 324 324 323 323 324 326 327 327 327 326 325 325 325 325 325 325 325 326 326 326 326 324 322 322 320 320 322 322 321 324 323 321 321 321 322 325 327 329
301 302 302 305 306 305 306 306 306 308 307 307 306 306 307 306 305 307 307 305 306 308 309 309 310 311 312 313 316 317 313 314 314 312 312 315 314 313 314 315 318 322 323 322 320 318 320 322 321 321 323 325 324 323 323 324 326 327 327 326 325 325 324 324 324 324 324 325 326 326 325 323 322 323 321 320 320 320 319 320 320 320 320 319 319 320 321 323
Wind_Speed
28 27 27 27 26 26 26 26 27 27 26 25 23 22 23 24 24 23 23 22 23 24 23 22 23 26 26 25 23 21 18 19 20 18 17 20 28 30 24 20 22 22 11 7 11 10 6 7 9 6 3 2 1 1 1 2 2 2 2 3 3 4 4 5 7 6 3 2 4 6 6 8 5 2 2 2 3 2 0 3 3 3 4 4 5 3 11 23
29 28 27 27 26 26 26 26 27 27 27 26 23 23 23 24 24 24 23 23 23 24 24 22 23 24 25 25 24 21 18 18 18 18 24 28 30 30 27 21 16 22 19 10 12 14 8 6 7 4 2 1 1 1 1 1 2 3 3 2 4 5 5 6 7 6 3 2 4 5 6 7 7 6 4 3 2 2 2 4 4 5 6 5 3 7 18 23
31 29 28 28 27 27 26 26 27 27 27 26 24 23 23 24 24 24 24 23 24 24 24 23 23 24 25 24 24 22 18 13 10 16 30 34 32 30 29 25 16 20 23 14 13 17 14 9 8 5 3 1 1 1 1 0 1 2 3 2 6 5 4 4 6 7 6 3 4 4 4 4 5 5 4 4 3 2 5 6 2 5 8 5 2 12 19 21
31 31 29 29 28 27 27 26 27 27 26 26 25 24 23 24 24 25 24 24 24 24 25 24 23 24 26 24 25 23 14 7 8 17 32 36 35 32 30 28 19 18 23 17 13 15 14 10 8 4 3 2 2 2 2 2 2 2 3 5 5 4 3 5 7 7 5 3 4 5 5 4 4 4 4 6 5 3 7 8 9 10 10 6 4 11 17 19
33 32 30 30 28 28 29 27 27 27 26 26 25 24 24 24 24 25 25 25 25 25 25 24 23 26 26 25 28 24 11 3 7 15 31 35 34 34 33 29 22 19 21 19 12 11 11 8 7 3 3 2 0 2 3 4 4 2 3 5 4 5 3 5 6 5 3 3 4 6 6 5 4 3 5 10 7 7 7 8 11 11 9 10 9 13 15 15
35 34 32 31 30 29 29 29 28 27 26 25 25 24 24 24 24 25 25 25 25 26 25 25 24 25 28 27 31 29 15 6 1 4 20 29 32 34 35 30 23 21 21 18 12 9 9 6 6 4 2 2 5 4 4 3 4 3 3 3 4 5 4 3 5 5 5 6 6 6 5 4 6 3 4 9 9 8 5 5 8 8 9 11 12 13 13 12
35 34 33 32 31 30 30 29 28 28 27 26 25 24 23 24 24 25 25 25 25 26 25 25 23 25 28 26 29 25 14 14 7 3 3 15 30 31 34 32 24 24 22 17 12 9 7 7 6 5 5 4 6 6 4 3 2 3 4 3 5 5 5 4 5 6 6 7 7 4 3 5 8 5 3 6 11 9 4 2 4 7 11 12 11 12 13 15
36 35 34 32 31 31 30 30 29 28 27 26 26 24 24 24 24 24 25 24 25 26 25 25 24 24 26 22 19 11 8 23 28 17 5 2 22 28 31 31 28 27 23 19 16 12 8 9 9 5 5 6 6 6 4 3 1 4 5 3 2 3 5 3 5 6 6 5 3 5 4 5 7 4 3 8 13 10 3 2 4 7 10 10 10 12 12 13
36 35 34 33 32 31 30 30 29 29 28 27 26 24 23 23 24 24 24 24 25 26 24 25 24 22 25 19 8 4 15 31 36 35 23 8 12 23 30 29 31 29 21 20 18 15 9 9 9 5 6 6 5 6 5 5 3 6 6 3 2 2 3 2 4 5 4 4 4 6 5 5 2 1 2 10 12 5 3 5 6 7 8 9 9 11 12 11
36 35 34 33 33 32 31 30 30 30 28 28 27 25 24 22 23 24 24 24 24 26 24 25 24 21 24 16 4 7 19 29 30 34 36 22 11 18 28 29 32 31 21 18 17 16 10 9 10 5 4 4 4 5 5 7 4 4 6 3 4 2 1 1 3 3 3 2 5 7 7 3 1 1 4 9 7 4 6 5 5 7 8 9 8 9 13 13
37 35 34 33 33 32 32 31 30 30 29 28 27 26 24 21 22 23 24 24 24 26 24 25 24 22 24 13 6 7 6 18 30 31 30 26 20 20 27 30 31 32 25 16 17 22 16 13 13 6 1 4 5 3 3 6 2 3 6 3 5 3 3 1 2 2 3 2 5 7 4 2 2 1 5 6 2 5 7 6 6 7 7 9 9 9 10 13
39 34 34 33 33 32 32 31 31 31 30 28 27 27 24 22 22 22 23 24 25 26 23 25 23 22 21 10 11 11 5 12 27 28 27 29 25 22 26 32 33 34 30 17 16 24 21 16 16 9 5 5 5 2 3 5 3 3 6 3 6 4 4 4 2 3 4 3 5 6 2 4 4 6 7 4 2 4 5 6 6 7 7 7 9 8 8 12
40 35 34 34 33 33 32 31 31 30 30 28 27 27 25 23 21 21 23 23 25 25 24 24 22 23 17 6 14 19 6 9 21 27 32 32 25 18 21 30 33 35 36 29 25 29 26 20 18 11 6 6 4 3 1 3 4 3 4 3 3 1 5 5 2 1 4 4 5 6 3 6 10 10 7 5 5 5 5 7 7 7 7 7 7 7 8 10
42 37 35 34 33 33 32 31 31 30 29 28 27 26 26 23 21 21 22 23 24 24 24 23 23 22 14 6 10 17 17 10 17 29 34 34 26 15 19 27 27 26 26 23 22 26 27 21 13 4 1 3 3 2 4 3 2 3 2 1 2 3 5 5 2 5 6 2 2 6 4 8 10 9 7 7 7 8 8 9 8 8 7 7 7 8 9 10
42 39 36 35 34 33 32 31 30 30 29 28 26 24 25 23 21 21 21 23 23 24 23 23 25 17 6 8 8 10 19 15 17 28 32 36 28 14 16 22 21 18 13 9 8 10 16 18 10 2 1 0 3 4 3 1 1 2 3 3 2 4 5 6 2 9 8 2 1 5 4 8 9 8 7 6 7 9 11 11 9 9 8 8 7 8 8 9
41 40 36 35 33 32 32 31 30 30 28 27 24 23 23 22 21 21 21 22 21 23 22 18 23 18 3 3 9 11 15 17 22 26 29 35 31 20 16 14 15 18 14 9 10 12 13 13 6 3 3 1 4 5 4 1 2 3 5 4 3 5 5 4 3 7 7 2 2 5 5 6 6 6 5 2 6 8 9 10 9 8 8 8 7 7 7 7
42 41 36 34 32 30 31 30 30 30 27 26 24 21 21 20 20 20 20 21 20 23 23 13 15 17 8 1 9 12 14 16 24 27 28 32 33 28 21 10 7 14 13 9 11 8 6 6 2 1 3 2 5 6 4 8 8 4 4 4 3 5 6 3 3 5 5 3 5 8 7 8 5 4 4 2 5 8 7 10 9 8 8 7 7 6 7 8
43 40 37 34 30 29 30 30 30 29 27 25 23 20 19 18 17 17 17 18 16 16 18 15 12 11 8 8 5 6 16 19 24 29 28 26 29 32 27 13 5 12 13 7 8 7 1 2 1 2 4 3 5 9 11 12 11 9 7 6 2 2 6 6 4 4 7 5 7 8 8 14 11 6 7 5 6 8 9 10 8 8 8 7 7 7 8 9
43 39 37 35 31 30 30 29 29 28 26 24 21 18 15 13 10 11 14 15 11 7 7 9 12 6 4 11 11 4 14 24 24 27 26 23 25 27 25 17 8 10 11 5 7 9 5 3 1 4 8 10 13 17 17 9 9 12 9 6 5 4 6 6 4 4 7 6 6 8 9 15 14 9 11 9 5 6 7 7 6 7 7 7 7 7 9 10
44 41 38 36 33 31 30 30 29 27 25 23 20 13 8 7 5 7 10 10 9 8 7 7 12 13 8 5 12 8 12 25 22 19 28 29 26 20 14 12 8 7 8 8 9 9 8 7 7 11 15 19 19 18 13 3 6 10 8 6 6 6 6 4 3 5 4 6 6 9 11 16 13 9 12 10 3 5 9 9 8 8 7 8 8 9 10 11
44 42 39 36 33 32 30 30 28 27 25 23 23 12 4 10 9 6 9 7 10 15 15 11 11 17 11 2 9 15 10 15 16 17 31 33 26 18 8 8 7 6 8 10 9 8 9 9 14 20 19 16 14 12 8 4 7 9 8 7 7 7 6 5 4 3 1 4 5 7 9 15 13 10 12 7 4 8 12 12 11 11 11 9 10 11 11 10
43 42 40 36 34 32 30 29 28 27 25 24 24 11 6 18 13 3 8 5 10 18 17 14 12 11 9 5 6 14 6 8 11 14 28 29 19 14 9 10 10 8 8 8 8 7 8 11 20 23 16 11 10 10 10 8 7 7 6 7 6 6 2 2 2 1 2 3 4 5 6 13 13 11 12 8 8 12 13 13 13 12 12 11 11 11 10 10
42 41 40 35 33 32 29 29 27 25 26 24 23 16 14 23 17 5 9 2 5 12 13 15 14 10 10 10 7 10 8 10 10 10 24 25 14 12 11 12 14 12 9 9 9 9 9 16 22 17 12 13 12 11 11 8 6 5 6 6 5 5 5 3 2 1 2 2 1 2 4 9 10 7 9 10 12 13 11 11 13 11 12 13 12 10 11 12
41 40 39 35 33 31 28 27 25 25 29 26 25 26 21 18 16 11 8 1 3 7 12 17 14 9 11 9 9 11 8 8 8 12 24 23 13 11 12 13 15 13 10 13 14 13 13 12 12 12 13 16 13 11 12 9 6 5 6 8 5 5 7 5 2 2 1 2 1 1 5 9 9 8 11 10 10 12 10 9 12 13 12 12 11 10 11 11
42 40 37 35 32 30 28 24 24 27 27 24 25 30 27 16 17 17 6 1 4 2 10 16 9 8 9 6 10 11 4 5 6 13 22 22 17 13 10 9 10 12 14 17 15 13 14 7 13 17 15 15 13 11 13 11 7 6 7 9 8 8 7 5 5 4 1 4 2 1 4 7 6 8 13 9 6 9 8 9 14 15 12 10 10 12 11 11
42 39 36 35 31 30 25 14 19 25 18 18 24 27 29 22 19 17 6 1 6 2 6 11 5 11 13 5 6 7 3 6 5 14 24 25 21 13 10 8 5 10 16 15 9 6 8 7 12 16 14 15 13 10 13 13 9 7 6 7 8 10 8 7 7 5 2 5 2 2 6 7 6 7 11 7 7 10 8 8 15 13 9 9 10 11 11 12
42 39 37 35 32 32 21 6 16 23 11 13 24 25 27 26 19 15 7 2 6 4 7 7 5 13 14 9 11 8 5 4 4 11 20 22 17 7 10 14 7 9 9 6 5 4 8 10 11 14 14 14 13 11 14 16 10 6 7 11 9 10 9 8 7 4 3 2 2 1 3 5 8 8 6 5 7 11 9 11 14 10 9 10 10 12 13 13
41 39 37 34 34 35 22 12 18 19 10 9 19 23 26 26 17 10 5 5 4 6 6 5 4 10 11 10 14 9 4 9 7 9 14 19 15 3 10 20 18 15 10 8 10 7 11 15 14 17 15 12 14 13 13 16 9 3 7 12 9 9 7 6 6 4 1 1 3 4 2 3 9 6 1 3 7 11 12 15 15 11 10 11 12 13 14 13
40 38 37 34 33 33 27 20 16 15 16 14 17 24 26 23 14 5 4 6 3 4 4 6 6 7 8 9 13 11 4 4 4 7 12 13 10 2 6 16 20 19 15 14 12 3 5 12 15 17 13 10 10 8 12 15 7 1 7 10 9 7 5 5 4 3 3 2 8 7 5 5 9 8 4 1 4 12 15 15 12 9 10 11 12 13 12 11
39 37 36 34 30 30 28 21 16 15 20 20 21 27 25 16 7 3 8 5 2 2 3 7 8 10 12 10 9 13 8 1 1 9 10 7 7 3 2 6 14 14 11 13 12 3 1 3 7 9 9 7 6 7 8 12 9 7 8 9 8 5 4 4 2 4 2 6 9 10 11 8 8 9 9 5 7 13 14 11 8 8 9 11 10 10 10 10
38 35 35 34 30 29 22 15 18 20 19 24 29 28 18 8 3 7 8 2 3 3 4 8 12 15 18 13 9 12 8 1 3 10 8 5 7 6 2 4 7 8 8 10 9 3 3 6 4 5 7 9 10 5 1 6 10 7 4 5 5 2 3 3 2 3 4 8 6 9 13 10 10 8 5 6 8 11 12 11 11 10 9 10 10 10 10 10
35 32 34 33 29 29 20 13 23 23 19 29 29 17 8 5 6 7 3 2 4 6 5 9 14 15 18 17 13 12 9 2 3 9 11 9 8 7 8 9 9 8 7 9 6 3 3 7 7 4 5 11 14 7 1 5 9 5 4 5 5 2 1 2 1 2 6 6 2 4 10 9 13 7 2 8 8 8 10 10 11 10 10 12 11 10 9 8
32 29 32 32 28 28 22 18 25 26 25 31 21 6 6 8 8 10 6 2 3 4 7 10 14 17 19 18 14 11 9 5 4 9 14 14 11 10 10 12 16 11 7 11 9 5 3 4 6 7 2 8 14 11 6 6 9 8 8 7 5 4 3 5 5 2 4 3 3 1 7 5 10 5 6 13 12 10 10 10 10 9 11 11 7 7 7 6
29 28 29 30 28 26 25 22 24 28 30 26 12 5 10 9 7 12 12 6 3 2 9 12 14 17 19 17 14 13 10 6 6 7 11 13 13 12 9 12 16 6 4 11 8 8 11 6 9 13 8 11 16 15 14 10 10 10 7 6 5 5 5 6 6 3 3 1 2 1 4 4 5 3 6 10 9 9 8 8 8 7 9 8 4 5 7 7
26 27 26 25 25 26 29 26 26 32 30 16 6 7 10 9 5 9 11 7 2 2 9 12 14 15 15 15 14 15 12 8 9 7 7 11 13 14 10 10 14 5 6 11 5 7 13 6 9 13 9 16 18 12 13 12 7 5 4 5 6 5 4 2 1 2 1 1 2 3 3 4 4 6 10 7 6 7 7 7 6 8 9 6 6 8 8 8
23 23 22 22 24 27 30 27 29 35 25 10 8 9 9 10 5 5 7 6 4 6 10 11 13 12 12 11 10 14 11 5 9 7 3 6 10 15 14 10 13 12 9 11 4 5 10 6 9 11 8 18 19 11 14 13 8 5 5 6 4 2 6 4 2 1 4 3 4 3 6 6 4 9 12 10 8 6 7 8 7 9 8 6 9 11 8 8
20 17 15 18 24 28 30 29 32 33 18 7 10 10 8 8 5 5 6 5 6 11 12 9 9 10 11 10 9 14 12 4 7 7 2 2 4 11 16 12 14 17 13 10 3 3 7 3 8 14 14 16 14 13 14 9 5 7 8 7 4 3 3 2 2 2 3 5 4 2 8 6 2 7 6 9 12 9 8 9 8 9 8 8 11 9 8 9
16 11 9 16 25 26 29 33 33 25 11 6 12 12 6 4 4 5 7 7 6 10 11 7 6 9 10 10 10 14 15 9 8 7 3 4 3 6 13 13 14 20 18 11 4 2 5 2 3 12 14 9 8 11 11 3 1 4 7 8 6 3 3 2 3 2 3 5 5 3 6 4 7 7 0 4 11 11 11 10 8 10 9 10 10 8 9 10
12 6 4 16 26 26 31 37 28 14 6 6 13 13 5 2 3 3 4 8 7 6 9 7 5 6 7 10 12 13 15 13 11 8 5 5 2 4 8 10 12 20 20 13 7 3 4 4 2 5 7 10 8 8 10 6 3 1 4 5 3 3 5 5 4 3 4 5 7 6 4 5 10 8 6 7 10 10 12 10 9 12 10 9 8 8 9 9
7 3 2 14 28 31 35 32 15 7 6 7 11 8 4 3 4 3 2 6 6 4 6 6 7 8 6 8 10 11 14 15 14 10 7 7 4 4 6 8 11 17 18 14 7 3 3 4 2 0 4 10 9 8 13 15 9 5 8 8 6 4 2 2 4 3 4 6 7 7 7 9 7 5 10 12 11 11 12 10 11 11 8 8 8 8 9 8
4 3 1 15 31 35 31 18 6 6 7 8 9 5 3 4 4 3 2 3 3 2 3 7 8 9 8 9 9 8 10 13 14 10 6 8 7 4 5 7 11 16 16 12 8 5 3 4 5 3 5 9 11 13 18 22 19 13 12 13 13 11 6 5 8 4 2 5 5 5 10 11 5 5 9 11 12 13 11 9 10 8 7 8 8 8 9 8
5 4 1 17 38 36 20 8 5 6 6 7 5 2 4 5 4 5 3 3 3 1 1 3 5 6 7 8 8 8 8 9 13 10 7 10 11 7 7 10 13 17 16 13 12 7 3 3 6 5 5 6 6 6 6 11 17 14 8 9 10 9 7 8 10 5 3 4 2 1 8 9 4 7 8 9 10 10 5 3 6 7 6 7 7 7 7 8
5 3 2 17 38 33 12 6 7 5 3 5 5 3 2 4 3 3 2 2 3 2 1 1 3 3 3 4 7 9 8 7 12 13 9 11 12 10 11 13 14 15 13 11 11 6 3 3 5 3 1 1 3 3 5 1 9 9 4 4 7 10 10 8 5 4 4 6 5 3 9 11 5 7 8 7 5 5 4 3 4 7 7 6 7 8 7 7
4 2 2 9 20 19 9 7 9 6 3 5 7 4 1 2 3 4 3 3 3 3 2 3 3 3 3 3 5 7 8 6 9 12 10 9 9 10 15 19 17 14 11 9 10 7 3 5 7 5 3 0 2 0 2 3 3 8 8 8 10 14 13 4 1 2 3 8 10 7 12 12 4 3 5 4 1 4 7 5 5 5 7 6 7 8 7 7
3 2 1 0 3 5 5 5 7 7 7 8 8 8 5 2 1 1 3 4 2 3 3 2 2 4 4 3 4 3 2 1 4 9 8 5 5 8 15 20 18 14 13 10 8 7 5 6 9 9 9 8 7 8 10 9 8 9 12 15 15 18 18 10 6 6 7 11 12 10 14 12 3 4 3 3 0 4 9 6 3 4 7 7 6 7 7 6
4 1 2 0 3 2 1 2 3 6 9 11 8 7 9 6 2 2 2 3 3 4 3 2 2 5 4 4 5 4 1 2 3 5 7 6 4 4 12 19 17 15 18 14 9 5 2 3 8 11 12 13 13 12 13 15 15 13 16 21 20 21 22 17 10 10 12 13 12 12 19 18 6 2 5 5 4 6 8 7 6 5 6 6 7 7 6 6
4 2 4 2 0 2 1 2 5 5 8 12 7 5 9 8 4 1 2 0 2 3 3 1 2 4 6 8 6 3 2 3 3 2 5 5 2 0 8 17 17 18 19 15 10 6 2 4 10 13 15 14 7 3 6 11 16 20 22 24 23 21 21 18 13 15 16 12 11 15 21 23 13 4 5 8 7 6 8 8 7 5 5 6 6 5 6 6
3 1 3 2 1 4 3 4 9 8 8 8 3 3 10 11 8 5 1 1 1 1 2 1 3 1 8 11 7 5 4 3 1 2 2 2 2 2 4 9 13 17 16 11 8 7 3 6 10 11 16 15 3 3 7 11 14 18 21 23 23 22 22 21 21 22 18 13 16 22 22 21 15 7 6 9 9 8 8 8 6 5 5 6 5 5 6 6
2 1 1 1 0 4 3 4 11 13 11 9 4 4 11 15 11 5 2 3 2 1 1 3 2 2 6 7 6 6 8 6 5 5 3 4 4 4 5 4 6 11 12 8 7 7 5 6 9 9 14 15 7 1 5 11 13 16 18 20 21 22 24 25 25 26 22 17 19 23 20 18 16 12 10 9 8 7 6 4 4 4 4 5 4 5 6 6
3 2 2 2 0 2 4 5 10 11 9 8 7 6 10 14 12 5 2 3 5 4 2 6 7 5 5 5 5 6 9 8 8 8 6 7 5 3 5 5 4 8 11 8 5 6 7 8 9 8 10 14 11 7 5 9 13 17 19 18 17 18 19 20 20 19 18 17 21 24 20 18 16 12 10 9 6 3 3 5 5 5 4 4 5 6 6 6
2 1 3 4 4 5 7 6 7 10 7 5 7 8 8 12 12 8 4 2 2 5 6 9 11 6 3 5 4 5 6 4 6 7 7 8 5 3 2 2 3 8 11 8 4 6 8 7 7 7 7 10 11 12 10 8 12 17 19 19 18 17 16 18 19 20 18 20 24 23 18 19 17 7 7 7 8 8 8 8 6 6 6 5 6 7 7 7
1 1 2 4 4 5 8 6 6 9 6 4 8 9 7 10 11 9 6 3 4 2 5 11 13 7 5 7 6 7 6 5 5 4 4 5 4 4 3 2 3 5 8 8 5 5 8 7 6 7 7 6 7 13 13 9 10 13 15 18 20 21 21 21 22 24 24 21 20 18 19 19 9 5 6 10 13 16 15 10 7 8 8 7 8 9 8 8
Wind_Direction
226 226 229 231 230 231 232 233 236 237 238 239 237 235 235 237 238 238 239 243 244 245 247 241 237 233 220 218 226 231 232 228 231 222 215 226 229 230 233 239 234 222 235 250 211 212 232 228 225 220 204 187 31 167 133 31 79 84 105 138 186 185 200 186 184 197 174 211 218 218 188 168 196 214 175 114 65 88 88 299 297 296 270 237 270 322 155 163
225 225 227 230 230 230 231 232 235 236 236 238 237 235 234 235 238 237 238 241 242 243 245 241 236 233 226 220 220 226 226 226 234 230 230 234 233 234 235 238 234 220 224 239 214 200 197 219 214 172 125 161 332 36 145 342 81 107 120 162 211 191 200 191 176 189 196 202 194 203 189 184 193 170 158 187 233 109 160 265 324 312 279 283 285 153 157 162
223 225 226 227 229 229 230 231 233 235 235 236 237 235 232 233 236 237 237 239 240 242 242 241 236 230 230 225 217 218 216 225 249 240 237 236 233 234 234 234 229 219 221 230 223 208 206 212 188 150 87 127 260 74 136 240 129 156 132 177 233 203 213 208 178 194 214 187 158 191 178 193 204 158 158 184 190 169 196 222 227 256 249 258 211 154 158 162
222 223 225 226 227 228 229 230 232 234 235 235 236 235 232 231 233 236 236 238 240 240 241 241 236 228 229 228 219 208 195 227 256 241 242 237 230 230 231 228 218 218 219 221 229 220 212 196 169 149 123 189 304 54 173 218 172 162 147 191 224 183 209 222 193 205 214 177 159 163 142 188 212 153 164 154 147 240 237 221 201 215 215 197 191 167 165 166
222 222 223 225 225 227 229 229 230 233 234 234 235 234 233 229 230 235 235 238 240 240 241 239 237 229 226 229 215 191 158 238 238 229 243 242 232 228 227 224 211 214 216 215 225 213 200 174 148 119 102 176 287 83 217 222 145 155 205 204 191 147 193 231 193 185 167 131 130 142 158 186 165 141 174 159 173 231 229 214 206 209 192 175 179 174 171 174
222 222 222 224 225 226 228 228 229 232 233 233 234 233 232 229 227 232 235 238 239 240 242 238 238 229 227 228 205 180 167 228 122 176 238 238 234 229 225 221 208 210 212 211 211 187 178 155 154 165 129 171 181 184 226 211 141 191 238 231 209 165 177 214 171 168 138 123 153 174 186 151 135 179 189 173 204 220 201 202 208 206 182 170 168 167 173 182
221 222 221 223 224 226 227 228 228 230 232 231 233 233 232 229 225 230 233 236 238 240 243 240 238 230 230 225 199 181 188 220 202 67 313 226 225 227 224 218 204 206 209 202 192 175 165 154 177 173 154 189 194 206 224 179 138 220 227 233 219 184 185 186 142 159 150 157 193 179 137 146 169 190 149 196 230 224 202 211 195 177 162 160 161 171 184 189
218 220 220 221 222 224 226 226 227 228 231 230 231 232 231 229 225 226 231 234 237 239 243 241 235 231 230 219 197 184 209 218 213 221 319 205 213 217 215 208 199 204 204 199 189 174 166 165 184 167 165 211 196 198 188 124 44 228 217 222 193 194 217 187 127 153 164 178 183 130 157 201 195 171 137 218 241 235 206 88 125 141 148 164 175 182 191 193
217 218 218 219 220 223 224 225 226 228 230 230 230 231 230 229 224 224 228 231 235 238 242 239 234 230 226 221 206 197 219 217 211 216 234 240 208 209 205 196 195 200 201 207 197 179 180 177 189 173 173 206 184 187 177 159 231 221 199 183 173 226 247 189 166 176 172 186 143 143 212 260 245 187 205 232 241 225 134 102 123 138 156 181 186 188 192 196
217 216 215 218 219 221 224 224 226 228 230 230 229 229 229 228 224 223 225 228 232 235 240 238 233 226 222 219 206 227 220 212 206 214 227 234 219 204 203 198 195 195 197 210 195 182 193 185 182 157 144 182 172 182 181 183 210 196 173 173 205 234 354 170 218 203 158 212 174 174 224 268 357 265 237 248 241 150 128 135 148 157 178 192 194 198 196 201
216 215 214 216 217 220 222 224 227 228 230 230 229 229 229 227 225 222 223 226 230 233 236 236 232 224 224 220 207 225 192 197 209 212 218 224 218 209 210 207 198 192 194 205 198 193 198 187 165 130 151 184 161 173 221 202 167 142 153 177 248 286 350 236 242 219 161 227 186 167 232 269 53 204 225 257 239 152 160 170 175 182 196 200 199 203 201 209
216 213 214 214 216 219 221 224 227 227 229 230 229 228 228 227 225 222 222 224 228 231 232 232 229 221 224 234 228 222 119 182 214 217 215 217 217 220 220 212 204 197 193 195 204 198 197 191 165 154 208 170 137 171 231 203 136 115 130 153 256 294 305 238 214 229 180 200 174 140 303 267 226 222 206 214 155 150 179 188 199 204 206 207 206 208 208 214
216 213 213 212 215 217 219 223 226 227 228 229 229 228 228 227 225 223 221 222 226 228 230 232 227 219 219 238 239 232 213 184 198 205 211 210 209 210 214 214 209 203 198 198 203 197 193 192 181 180 185 139 156 199 156 133 124 134 125 139 240 292 279 238 169 175 175 194 174 152 254 244 232 234 204 187 156 144 198 216 216 216 215 214 209 213 219 215
214 213 212 211 213 215 218 222 226 227 227 228 229 227 228 227 225 223 220 222 224 226 230 229 223 220 219 237 251 234 231 223 183 186 194 196 194 187 198 213 214 207 204 203 199 195 191 183 176 179 117 123 177 153 64 41 111 149 147 177 191 181 259 269 160 151 170 223 161 156 229 247 241 246 225 208 178 170 213 229 223 221 221 218 212 215 224 217
212 212 211 211 211 213 217 220 224 227 226 228 228 227 227 226 226 224 221 222 222 224 228 227 220 216 226 248 255 221 213 213 187 187 192 193 185 173 197 213 220 216 210 194 154 150 160 156 149 157 208 150 139 115 91 7 6 150 191 208 184 193 256 297 227 170 180 247 124 154 214 259 258 250 237 220 188 190 218 227 225 224 222 223 223 220 226 229
211 210 209 210 210 211 215 217 221 226 226 226 226 227 225 225 226 224 223 221 220 222 220 222 216 212 265 242 197 189 192 192 191 192 195 196 189 177 184 195 211 209 193 170 138 103 104 126 142 170 139 111 153 135 113 162 247 222 205 197 169 186 220 286 269 205 195 146 197 212 225 257 269 243 242 238 187 195 223 237 235 231 232 229 229 230 230 239
210 209 208 209 208 209 212 215 219 223 224 223 224 224 223 226 226 225 227 220 219 219 215 216 204 210 252 149 156 179 187 186 187 184 184 193 193 179 165 149 184 185 165 146 147 125 85 107 141 170 121 133 161 139 160 207 215 207 198 203 194 183 190 224 275 245 211 170 204 222 235 242 243 222 247 274 181 184 218 241 243 234 235 232 228 236 235 236
209 208 207 207 206 207 210 213 216 219 220 220 220 218 220 225 224 227 228 215 213 216 218 225 203 197 226 210 197 190 181 174 173 178 180 184 185 173 160 148 141 154 147 132 145 151 117 88 98 168 155 178 165 171 204 212 201 191 190 193 186 180 196 201 222 216 186 196 214 203 232 246 242 238 255 253 171 179 216 231 242 239 234 235 228 229 232 233
207 205 205 206 205 205 208 210 214 217 217 217 213 210 216 221 222 230 220 200 198 204 217 219 201 219 272 203 213 229 171 168 168 174 172 169 170 161 148 144 151 160 154 153 163 164 154 110 125 191 187 195 193 196 205 199 182 188 184 173 161 183 220 213 233 237 174 179 223 202 223 245 241 240 252 251 177 187 236 240 248 248 239 239 232 230 231 230
206 204 204 206 205 204 206 208 211 212 214 210 196 190 205 198 194 222 209 198 206 220 238 209 193 226 273 207 193 186 160 166 167 165 166 165 157 145 131 131 159 194 180 171 165 161 159 158 186 205 203 200 200 202 203 164 144 159 156 169 174 191 234 231 237 274 181 173 229 215 226 247 244 240 248 248 192 219 251 246 240 240 239 237 231 232 230 230
202 204 204 204 204 204 204 206 208 210 212 203 185 181 197 180 182 195 184 203 221 220 234 229 210 219 231 330 166 166 162 170 166 163 168 164 152 150 149 144 164 215 200 167 137 142 167 182 203 208 208 201 199 202 196 167 139 144 161 179 186 197 225 220 207 280 186 179 247 228 233 255 252 246 250 240 200 241 247 241 238 234 236 236 232 234 232 236
199 202 201 200 203 204 202 204 207 208 209 198 187 194 222 197 198 171 158 197 230 216 228 230 235 245 234 276 190 170 178 176 168 172 167 160 161 173 163 154 177 209 201 162 132 149 173 203 213 207 200 192 193 197 199 197 165 152 164 171 189 194 198 254 224 355 163 183 260 243 232 258 256 247 251 235 218 242 239 233 237 231 234 236 231 234 234 240
196 198 199 199 202 201 199 202 204 205 203 197 192 201 215 207 207 184 158 185 257 208 222 228 229 247 234 240 210 183 206 179 165 178 168 162 169 179 164 163 187 201 194 177 166 163 182 213 212 195 182 190 194 194 197 204 191 174 166 170 187 162 159 234 252 93 199 193 231 260 263 268 266 258 256 236 225 244 239 230 240 234 232 235 230 230 228 232
192 193 196 198 198 198 198 198 200 204 204 202 203 208 211 208 207 195 162 217 276 194 207 220 227 235 230 229 184 181 217 198 170 169 171 172 164 166 176 174 185 199 197 188 186 186 202 213 186 165 180 192 190 188 191 199 207 204 193 195 183 146 173 201 152 120 315 309 120 344 303 273 257 248 254 241 220 244 242 227 245 242 234 235 236 236 229 227
190 192 193 194 196 196 193 195 202 205 205 206 211 212 210 204 206 200 167 311 249 221 204 204 219 230 219 224 187 174 195 230 203 168 171 179 169 161 182 182 182 197 196 192 194 202 215 188 146 168 187 186 186 189 190 191 203 217 217 205 175 150 163 144 126 121 47 280 234 143 273 271 260 236 245 243 207 234 233 216 238 241 232 229 233 238 233 230
190 191 191 192 193 189 187 197 204 199 201 212 213 210 205 204 205 192 145 342 231 222 183 177 176 199 192 195 177 143 159 224 200 167 172 181 177 165 178 182 185 202 194 192 199 211 211 180 160 174 174 175 190 198 190 185 196 219 198 170 155 150 151 140 144 144 183 253 274 166 227 268 290 246 239 233 216 238 235 223 240 240 231 226 224 234 232 230
189 189 190 191 188 183 181 171 187 191 197 216 209 202 198 200 199 176 137 283 231 157 154 170 168 177 175 169 162 153 178 165 125 176 181 179 177 180 187 177 180 210 187 167 216 201 171 177 171 166 162 172 193 200 191 183 191 212 151 135 139 144 151 153 156 180 216 261 326 186 209 271 275 255 231 195 213 249 251 243 246 238 231 232 225 231 231 230
187 188 189 189 188 187 183 158 170 189 201 199 195 193 192 187 172 146 158 232 202 124 144 176 164 159 158 157 166 187 180 133 146 195 183 174 174 199 200 182 181 196 177 169 211 194 168 182 175 167 169 182 199 197 180 174 191 235 133 130 127 126 137 139 144 185 265 360 247 211 141 257 260 259 203 159 210 247 250 243 243 233 227 232 230 232 232 233
185 187 189 189 190 191 192 186 179 193 201 188 179 184 183 171 148 111 219 221 153 119 144 155 155 147 145 152 173 205 213 127 176 172 161 177 180 202 210 185 181 185 181 191 204 188 172 188 175 170 176 191 194 167 160 172 187 180 116 106 94 95 98 97 124 143 76 277 236 207 169 228 264 253 223 171 213 236 244 242 239 227 223 227 230 234 233 234
184 187 189 188 189 192 195 199 195 193 196 188 170 165 159 150 144 192 217 208 113 133 153 157 164 147 148 158 181 197 195 41 150 150 155 182 177 179 280 181 177 175 181 201 205 224 5 145 159 172 180 176 131 111 156 170 151 125 110 93 80 63 65 73 66 95 99 257 233 194 181 205 270 251 214 205 204 219 236 248 246 228 225 230 230 232 230 229
185 187 189 187 189 191 189 196 196 190 189 179 162 150 143 140 196 214 209 177 103 158 167 160 159 150 155 164 182 186 176 138 173 157 158 177 177 177 165 165 170 162 180 202 204 214 83 109 147 178 166 140 117 104 101 133 137 126 104 125 126 64 44 61 30 88 205 249 229 183 171 186 243 243 201 223 218 217 228 236 238 228 224 233 228 226 226 225
186 187 189 190 192 192 190 195 192 189 183 172 159 141 149 192 213 217 210 97 157 183 171 158 159 159 162 171 186 178 158 163 197 170 168 177 191 188 177 177 167 161 187 193 183 172 134 158 167 146 153 147 137 136 57 123 149 128 95 144 156 141 125 160 172 184 224 251 298 167 155 188 241 247 255 257 243 230 229 231 234 222 220 231 225 224 229 225
187 188 190 194 195 193 195 196 191 190 177 165 157 143 196 211 210 205 189 152 216 190 154 161 169 166 164 176 191 172 157 181 188 182 181 179 191 197 195 188 176 174 181 174 171 168 178 213 166 128 146 176 155 155 172 162 165 164 153 162 173 160 168 195 193 211 235 241 347 147 154 221 262 268 251 246 240 233 228 229 231 217 223 233 219 219 238 239
187 188 192 197 199 197 197 198 194 186 169 157 160 181 200 222 209 189 188 191 263 190 148 164 171 166 170 184 188 166 167 194 177 182 186 179 191 198 200 198 187 177 127 161 174 173 179 209 180 167 172 183 177 175 176 163 166 183 166 154 189 188 186 201 194 220 237 219 337 211 168 208 230 269 267 247 251 255 242 237 241 241 244 250 248 236 242 247
186 190 195 197 199 200 199 199 193 181 168 158 186 195 201 224 202 185 190 175 223 203 146 159 167 167 179 192 187 177 184 192 177 193 198 183 195 194 188 196 189 166 122 163 176 175 189 216 183 175 164 173 184 180 162 151 160 189 140 151 212 203 151 125 183 215 150 131 268 215 225 231 211 278 287 268 274 279 266 263 260 258 257 260 267 252 238 239
185 191 196 196 199 200 198 195 187 178 172 168 200 202 208 219 201 183 184 155 171 163 141 160 172 172 184 189 187 188 193 182 168 192 223 185 202 196 186 188 182 173 161 166 156 161 195 216 171 161 159 178 182 164 160 164 160 169 173 185 204 127 110 117 236 348 60 237 244 175 244 281 316 283 265 241 251 268 266 266 250 247 252 251 255 253 246 244
184 188 195 201 201 199 195 190 180 177 177 182 207 210 207 215 203 167 179 174 162 151 148 167 179 178 183 182 189 186 178 162 162 181 205 167 220 204 189 186 177 179 181 175 173 179 179 188 169 165 174 186 175 150 164 178 145 158 188 181 125 68 82 118 219 17 53 252 266 189 235 260 285 268 249 216 233 246 251 251 244 248 249 241 247 253 253 251
178 179 201 209 201 195 191 186 179 180 187 192 212 218 199 207 216 179 183 182 164 153 158 170 173 184 186 176 188 184 174 177 169 167 181 174 244 221 189 185 179 183 189 180 181 207 154 105 203 185 176 164 136 143 166 217 295 169 178 164 135 166 214 165 187 202 193 244 273 235 233 241 221 230 227 212 229 233 241 244 238 241 236 235 247 251 250 251
166 164 227 209 199 194 188 184 179 184 201 195 213 219 187 173 238 229 186 172 172 164 165 174 168 182 191 176 179 179 178 185 173 167 194 176 210 248 192 183 183 185 188 182 179 188 157 141 204 209 167 140 144 167 174 194 270 44 134 150 147 188 199 187 187 187 181 225 261 248 225 240 228 198 161 214 227 223 235 244 244 243 235 233 243 245 248 248
153 172 248 193 193 191 183 180 179 191 205 206 213 208 166 183 213 243 226 167 170 178 170 179 174 171 181 181 181 178 179 189 184 183 198 171 165 252 214 185 181 181 184 192 195 164 152 158 143 238 165 154 169 189 178 179 183 166 165 175 189 191 171 197 205 176 164 206 241 253 248 250 242 174 177 206 219 214 216 225 238 247 245 237 238 240 245 246
146 198 231 178 183 181 175 176 192 194 202 217 213 192 166 190 170 175 211 135 136 217 174 167 172 173 173 175 185 182 178 193 196 189 190 178 177 226 221 185 173 172 175 191 208 184 165 174 153 164 186 177 188 195 189 186 181 179 186 186 189 189 168 190 211 196 172 212 203 229 259 260 232 182 190 200 216 221 211 215 237 245 243 242 241 237 240 246
160 200 214 171 174 171 166 191 205 181 208 212 191 153 154 162 152 165 173 119 121 324 11 151 160 166 170 172 179 175 167 188 201 196 185 189 196 200 193 181 173 172 173 184 199 187 127 130 144 157 194 194 200 204 195 193 188 190 199 188 187 190 177 194 212 195 179 224 177 183 271 274 205 179 196 199 218 238 234 235 268 268 252 251 259 259 254 253
179 188 99 164 172 169 168 217 196 173 222 185 129 72 137 139 142 174 166 141 149 103 28 184 162 163 183 169 165 173 171 181 200 202 189 189 200 191 174 171 169 176 181 181 187 181 66 107 140 134 212 324 354 3 21 33 193 197 209 179 176 192 196 201 205 173 178 213 206 218 258 262 226 185 199 199 211 266 273 211 241 274 281 281 280 280 274 264
159 128 76 157 168 170 181 214 200 188 196 151 122 117 131 87 134 168 167 156 148 129 150 220 196 164 171 153 146 170 182 182 196 202 195 188 191 175 169 172 168 173 190 186 176 181 180 168 159 150 168 57 17 43 43 28 191 198 205 197 187 192 193 183 112 134 202 214 203 216 246 253 256 160 194 196 177 282 273 226 195 243 270 277 281 281 277 274
123 97 261 88 97 146 190 220 204 186 167 149 143 148 145 85 82 135 138 134 132 136 147 252 205 123 117 136 103 100 168 156 180 195 195 183 174 163 170 176 170 172 193 194 172 177 194 184 175 175 180 183 184 190 187 181 184 199 202 196 193 191 186 185 197 197 212 215 202 211 238 247 333 25 240 243 356 259 268 268 241 241 254 260 266 270 276 280
158 155 196 238 23 88 201 258 194 184 169 152 145 157 153 140 99 6 67 135 156 138 121 268 198 114 103 133 101 74 121 56 71 177 183 172 169 174 175 176 175 180 185 178 157 149 174 208 200 201 203 200 198 201 193 179 178 188 195 195 197 195 191 193 202 204 211 219 213 218 234 241 254 325 252 240 213 231 254 269 273 266 259 255 253 260 275 279
174 191 174 170 105 143 259 241 175 186 183 160 150 166 151 136 131 72 14 188 173 129 100 319 235 139 146 153 132 124 160 90 69 163 182 175 162 299 182 177 182 185 177 166 158 144 129 221 215 219 227 224 211 191 171 172 185 191 193 196 196 193 194 197 207 213 212 219 230 228 233 239 237 217 239 229 208 223 245 248 252 253 249 249 251 266 275 273
172 173 168 136 142 170 194 210 176 171 184 168 139 155 148 141 148 152 118 31 106 126 110 24 323 151 156 160 149 141 143 115 129 204 189 167 122 78 169 188 194 187 169 158 170 157 147 223 218 222 236 235 222 91 150 172 195 202 198 197 195 189 191 197 209 218 210 208 230 230 229 238 238 221 226 226 209 209 221 225 228 219 224 239 242 257 269 271
152 80 103 40 273 167 154 184 168 160 169 161 127 155 159 151 152 151 110 110 132 261 139 138 227 211 155 152 136 144 164 163 183 211 190 163 168 138 149 185 214 192 171 160 177 166 159 218 217 219 241 243 243 291 182 174 188 208 207 202 197 192 194 200 209 218 216 217 232 238 238 245 242 222 213 221 211 203 217 250 258 237 235 243 236 241 254 258
163 156 142 120 129 134 126 166 163 153 165 164 146 162 166 153 150 141 100 138 165 190 173 151 167 174 152 138 127 162 186 174 175 193 172 158 188 185 165 178 184 181 180 173 177 179 180 200 199 199 237 242 232 240 238 190 189 205 210 206 201 196 199 209 218 223 225 229 240 246 248 251 245 218 200 212 208 185 244 268 270 275 277 274 269 260 254 255
199 188 152 144 152 149 148 174 173 154 164 177 154 156 162 156 153 137 88 12 164 169 171 154 146 138 124 126 136 180 194 157 149 166 152 151 168 151 156 211 166 171 183 176 156 176 186 190 178 182 229 241 214 212 228 217 203 210 209 201 195 193 199 209 217 219 215 219 232 241 244 248 247 212 171 208 214 215 232 233 233 251 253 248 257 259 254 255
195 187 164 144 150 164 162 174 184 163 161 169 153 151 156 157 155 140 113 24 355 75 147 149 140 131 141 164 189 200 182 142 121 120 109 116 114 100 102 53 67 143 177 179 162 166 184 194 179 178 216 238 204 205 216 219 217 218 208 195 192 195 201 207 215 219 214 211 222 229 233 242 245 123 157 212 210 215 224 215 211 232 233 232 241 245 245 245